Location: Unspecified
(22.6800°N, 112.2000°E)
Time: 03:44:27
(UTC+08:00)

S-56A Canister/Altair - Pass Details

Date: 25 July 2021
Orbit: 632 x 2500 km, 38.9° (Epoch: 27 September)

Event Time Altitude Azimuth Distance (km) Brightness Sun altitude
Rises 16:54:09 0° 248° (WSW) 5,730 12.8 30.6°
Reaches altitude 10° 16:57:42 10° 251° (WSW) 4,886 12.7 29.8°
Maximum altitude 17:12:13 65° 332° (NNW) 2,673 11.0 26.5°
Drops below altitude 10° 17:26:34 10° 53° (NE) 4,814 11.3 23.3°
Sets 17:30:04 0° 57° (ENE) 5,644 11.6 22.5°
